Content
SEND FEEDBACK

Daily
Averages
Monthly
Summary
Greece

KALAMATA, GREECE


Home > Europe > Greece
Elevation: 26 feet     Latitude: 37 04N     Longitude: 022 01E

WEATHER
 
SELECT A DAY
Number of Records: 254,103;   Date Range: 7/1/96 - 12/19/14
 
SHARE

PRINT THIS DATA

[ ← Previous Day ]
WEATHER ALMANAC - MARCH 14, 2013
[ Next Day → ]
[ °C ]   °F
Weather ElementAverageHighLow
Temperature61.7 °F68 °F (11:20 am)51.8 °F (11:50 pm)
Dewpoint48.4 °F57.2 °F (5:20 pm)42.8 °F (5:50 am)
Humidity62.6 %88 % (5:20 pm)43 % (9:50 am)
Barometer29.48 in29.68 in (1:50 am)29.36 in (4:50 pm)
Wind Speed11.1 mph25.3 mph (2:20 pm)
Wind Gust38 mph (2:20 pm)
Weather ElementAverage
Visibility5.3 mi
Wind DirectionSSW (199.7 °)

Weather ElementTotal
Precipitation---
Heating Degree Days5.1 (Base 65)
Growing Degree Days9.9 (Base 50)
Averaged from 35 records on March 14, 2013
WEATHER CONDITIONS BREAKOUT
WIND DIRECTION BREAKOUT
WEATHER BY HOUR - MARCH 14, 2013
[ °C ]   °F
Local TimeTemperatureDewpointHumidityBarometerVisibilityWind DirectionWind SpeedGust SpeedPrecipitationEventsConditions
1:50 AM62.6 °F46.4 °F55 %29.68 in6.2 miSouth (180°)11.5 mphScattered Clouds
2:50 AM60.8 °F51.8 °F72 %29.65 in6.2 miCalmScattered Clouds
3:50 AM62.6 °F44.6 °F52 %29.62 in6.2 miSSE (160°)11.5 mphScattered Clouds
4:50 AM62.6 °F46.4 °F55 %29.59 in6.2 miSouth (170°)11.5 mphScattered Clouds
5:20 AM64.4 °F44.6 °F49 %29.59 in6.2 miSSW (210°)15.0 mphOvercast
5:50 AM64.4 °F42.8 °F45 %29.59 in6.2 miSouth (180°)16.1 mph27.6 mphOvercast
6:20 AM64.4 °F46.4 °F52 %29.59 in6.2 miSouth (170°)17.3 mph32.2 mphOvercast
6:50 AM62.6 °F46.4 °F55 %29.59 in6.2 miSouth (180°)13.8 mph33.4 mphRainLight Rain
7:20 AM62.6 °F46.4 °F55 %29.56 in6.2 miWSW (250°)9.2 mphRainLight Rain
7:50 AM62.6 °F48.2 °F59 %29.56 in6.2 miWSW (250°)6.9 mphOvercast
8:20 AM62.6 °F48.2 °F59 %29.53 in6.2 miWest (260°)8.1 mphOvercast
8:50 AM62.6 °F48.2 °F59 %29.50 in6.2 miWSW (250°)8.1 mphOvercast
9:20 AM64.4 °F46.4 °F52 %29.50 in6.2 miWest (260°)10.4 mphOvercast
9:50 AM66.2 °F42.8 °F43 %29.47 in6.2 miWSW (250°)11.5 mphOvercast
10:20 AM64.4 °F50.0 °F59 %29.47 in6.2 miWest (270°)9.2 mphOvercast
10:50 AM64.4 °F48.2 °F56 %29.44 in6.2 miWest (260°)6.9 mphOvercast
11:20 AM68.0 °F44.6 °F43 %29.44 in6.2 miWSW (250°)11.5 mph23.0 mphOvercast
12:20 PM64.4 °F46.4 °F52 %29.42 in6.2 miWSW (250°)17.3 mph35.7 mphOvercast
12:50 PM64.4 °F46.4 °F52 %29.44 in6.2 miWSW (250°)15.0 mph27.6 mphOvercast
1:50 PM64.4 °F50.0 °F59 %29.42 in5.0 miSSW (200°)20.7 mph32.2 mphOvercast
2:20 PM64.4 °F51.8 °F64 %29.39 in4.3 miSouth (190°)25.3 mph38.0 mphOvercast
2:50 PM62.6 °F53.6 °F72 %29.39 in4.3 miSouth (190°)24.2 mph35.7 mphOvercast
3:20 PM62.6 °F53.6 °F72 %29.39 in3.7 miSouth (190°)18.4 mph34.5 mphOvercast
4:20 PM62.6 °F55.4 °F77 %29.39 in2.8 miSouth (190°)17.3 mphOvercast
4:50 PM60.8 °F55.4 °F82 %29.36 in1.9 miSouth (190°)15.0 mphRainLight Rain
5:20 PM60.8 °F57.2 °F88 %29.36 in1.9 miSouth (180°)11.5 mphRainLight Rain
5:50 PM60.8 °F53.6 °F77 %29.39 in3.7 miWSW (240°)6.9 mphOvercast
6:20 PM59.0 °F51.8 °F77 %29.39 in4.3 miWSW (250°)11.5 mph24.2 mphOvercast
6:50 PM57.2 °F51.8 °F82 %29.42 in5.0 miSW (230°)4.6 mphMostly Cloudy
7:20 PM57.2 °F48.2 °F72 %29.42 in5.0 miWest (260°)4.6 mphMostly Cloudy
7:50 PM57.2 °F48.2 °F72 %29.44 in5.0 miSW (230°)4.6 mphMostly Cloudy
8:50 PM57.2 °F44.6 °F63 %29.47 in5.0 miCalmMostly Cloudy
9:50 PM55.4 °F44.6 °F67 %29.50 in5.0 miSSW (200°)5.8 mphMostly Cloudy
10:50 PM55.4 °F44.6 °F67 %29.50 in6.2 miSSW (200°)6.9 mphScattered Clouds
11:50 PM51.8 °F44.6 °F76 %29.50 in6.2 miCalmMostly Cloudy
Hourly data recorded from LGKL, located miles away from Kalamata, Greece







STORIES FROM OUR PARTNERS